Time,TemperatureF,DewpointF,PressureIn,WindDirection,WindDirectionDegrees,WindSpeedMPH,WindSpeedGustMPH,Humidity,HourlyPrecipIn,Conditions,Clouds,dailyrainin,SoftwareType,DateUTC
2013-02-27 00:13:00,40.5,36.9,29.48,SW,225,1.7,-999.0,87,-99.99,,,0.00,Acu-Link.com,2013-02-27 05:13:00,
2013-02-27 00:28:00,40.1,36.3,29.49,West,270,0.0,-999.0,86,-99.99,,,0.00,Acu-Link.com,2013-02-27 05:28:00,
2013-02-27 00:43:00,39.9,36.1,29.50,ENE,67,1.1,-999.0,86,-99.99,,,0.00,Acu-Link.com,2013-02-27 05:43:00,
2013-02-27 00:58:00,39.6,35.5,29.51,NW,315,0.0,-999.0,85,-99.99,,,0.00,Acu-Link.com,2013-02-27 05:58:00,
2013-02-27 01:14:00,39.4,35.0,29.51,SE,135,0.0,-999.0,84,-99.99,,,0.00,Acu-Link.com,2013-02-27 06:14:00,
2013-02-27 01:29:00,39.0,34.6,29.51,NNW,337,0.0,-999.0,84,-99.99,,,0.00,Acu-Link.com,2013-02-27 06:29:00,
2013-02-27 01:44:00,38.8,34.4,29.51,West,270,0.0,-999.0,84,-99.99,,,0.00,Acu-Link.com,2013-02-27 06:44:00,
2013-02-27 01:59:00,38.1,33.7,29.51,ESE,112,1.7,-999.0,84,-99.99,,,0.00,Acu-Link.com,2013-02-27 06:59:00,
2013-02-27 02:14:00,38.3,33.9,29.52,West,270,2.2,-999.0,84,-99.99,,,0.00,Acu-Link.com,2013-02-27 07:14:00,
2013-02-27 02:29:00,38.7,34.0,29.52,SSE,157,0.0,-999.0,83,-99.99,,,0.00,Acu-Link.com,2013-02-27 07:29:00,
2013-02-27 02:44:00,39.2,34.5,29.52,WSW,247,0.0,-999.0,83,-99.99,,,0.00,Acu-Link.com,2013-02-27 07:44:00,
2013-02-27 02:59:00,39.0,34.3,29.53,North,0,0.0,-999.0,83,-99.99,,,0.00,Acu-Link.com,2013-02-27 07:59:00,
2013-02-27 03:14:00,39.2,34.5,29.53,SW,225,2.2,-999.0,83,-99.99,,,0.00,Acu-Link.com,2013-02-27 08:14:00,
2013-02-27 03:29:00,39.0,34.3,29.53,NW,315,2.2,-999.0,83,-99.99,,,0.00,Acu-Link.com,2013-02-27 08:29:00,
2013-02-27 03:45:00,39.2,34.2,29.52,NW,315,2.7,-999.0,82,-99.99,,,0.00,Acu-Link.com,2013-02-27 08:45:00,
2013-02-27 04:00:00,39.4,34.1,29.53,NNW,337,0.0,-999.0,81,-99.99,,,0.00,Acu-Link.com,2013-02-27 09:00:00,
2013-02-27 04:17:00,39.2,33.9,29.53,ESE,112,0.0,-999.0,81,-99.99,,,0.00,Acu-Link.com,2013-02-27 09:17:00,
2013-02-27 04:33:00,38.5,33.2,29.54,NE,45,1.7,-999.0,81,-99.99,,,0.00,Acu-Link.com,2013-02-27 09:33:00,
2013-02-27 04:48:00,38.1,32.8,29.55,West,270,0.0,-999.0,81,-99.99,,,0.00,Acu-Link.com,2013-02-27 09:48:00,
2013-02-27 05:03:00,37.6,32.3,29.56,ESE,112,1.1,-999.0,81,-99.99,,,0.00,Acu-Link.com,2013-02-27 10:03:00,
2013-02-27 05:18:00,37.2,32.2,29.56,WSW,247,0.0,-999.0,82,-99.99,,,0.00,Acu-Link.com,2013-02-27 10:18:00,
2013-02-27 05:33:00,36.9,31.9,29.57,SW,225,0.0,-999.0,82,-99.99,,,0.00,Acu-Link.com,2013-02-27 10:33:00,
2013-02-27 05:48:00,36.5,31.5,29.57,WNW,292,0.0,-999.0,82,-99.99,,,0.00,Acu-Link.com,2013-02-27 10:48:00,
2013-02-27 06:03:00,36.1,31.1,29.58,West,270,0.0,-999.0,82,-99.99,,,0.00,Acu-Link.com,2013-02-27 11:03:00,
2013-02-27 06:18:00,35.8,30.9,29.59,West,270,0.0,-999.0,82,-99.99,,,0.00,Acu-Link.com,2013-02-27 11:18:00,
2013-02-27 06:34:00,35.2,30.0,29.59,WSW,247,0.0,-999.0,81,-99.99,,,0.00,Acu-Link.com,2013-02-27 11:34:00,
2013-02-27 06:49:00,35.1,30.2,29.59,West,270,0.0,-999.0,82,-99.99,,,0.00,Acu-Link.com,2013-02-27 11:49:00,
2013-02-27 07:04:00,35.1,30.2,29.59,East,90,0.0,-999.0,82,-99.99,,,0.00,Acu-Link.com,2013-02-27 12:04:00,
2013-02-27 07:19:00,34.9,30.3,29.60,NE,45,0.0,-999.0,83,-99.99,,,0.00,Acu-Link.com,2013-02-27 12:19:00,
2013-02-27 07:34:00,35.1,30.5,29.61,NNE,22,0.0,-999.0,83,-99.99,,,0.00,Acu-Link.com,2013-02-27 12:34:00,
2013-02-27 07:49:00,35.2,30.6,29.62,West,270,0.0,-999.0,83,-99.99,,,0.00,Acu-Link.com,2013-02-27 12:49:00,
2013-02-27 08:04:00,36.7,32.0,29.62,NNW,337,0.0,-999.0,83,-99.99,,,0.00,Acu-Link.com,2013-02-27 13:04:00,
2013-02-27 08:19:00,37.9,32.9,29.63,NE,45,2.2,-999.0,82,-99.99,,,0.00,Acu-Link.com,2013-02-27 13:19:00,
2013-02-27 08:34:00,39.2,33.6,29.63,West,270,1.1,-999.0,80,-99.99,,,0.00,Acu-Link.com,2013-02-27 13:34:00,
2013-02-27 08:50:00,40.5,33.9,29.64,SW,225,1.7,-999.0,77,-99.99,,,0.00,Acu-Link.com,2013-02-27 13:50:00,
2013-02-27 09:05:00,41.7,33.7,29.63,SW,225,3.2,-999.0,73,-99.99,,,0.00,Acu-Link.com,2013-02-27 14:05:00,
2013-02-27 09:20:00,43.2,34.4,29.64,WNW,292,1.7,-999.0,71,-99.99,,,0.00,Acu-Link.com,2013-02-27 14:20:00,
2013-02-27 09:35:00,44.1,34.2,29.64,NNE,22,2.2,-999.0,68,-99.99,,,0.00,Acu-Link.com,2013-02-27 14:35:00,
2013-02-27 09:50:00,46.8,35.3,29.64,West,270,1.7,-999.0,64,-99.99,,,0.00,Acu-Link.com,2013-02-27 14:50:00,
2013-02-27 10:05:00,48.9,35.6,29.64,SW,225,1.7,-999.0,60,-99.99,,,0.00,Acu-Link.com,2013-02-27 15:05:00,
2013-02-27 10:20:00,49.5,34.9,29.64,SSW,202,2.7,-999.0,57,-99.99,,,0.00,Acu-Link.com,2013-02-27 15:20:00,
2013-02-27 10:35:00,50.2,34.2,29.65,WSW,247,1.1,-999.0,54,-99.99,,,0.00,Acu-Link.com,2013-02-27 15:35:00,
2013-02-27 10:50:00,52.0,33.4,29.64,North,0,1.7,-999.0,49,-99.99,,,0.00,Acu-Link.com,2013-02-27 15:50:00,
2013-02-27 11:06:00,52.7,32.5,29.65,West,270,1.1,-999.0,46,-99.99,,,0.00,Acu-Link.com,2013-02-27 16:06:00,
2013-02-27 11:21:00,52.3,33.2,29.65,SW,225,2.2,-999.0,48,-99.99,,,0.00,Acu-Link.com,2013-02-27 16:21:00,
2013-02-27 11:36:00,53.4,33.1,29.65,SSW,202,4.7,-999.0,46,-99.99,,,0.00,Acu-Link.com,2013-02-27 16:36:00,
2013-02-27 11:51:00,52.9,33.8,29.65,SSE,157,2.2,-999.0,48,-99.99,,,0.00,Acu-Link.com,2013-02-27 16:51:00,
2013-02-27 12:06:00,54.3,33.4,29.64,South,180,2.2,-999.0,45,-99.99,,,0.00,Acu-Link.com,2013-02-27 17:06:00,
2013-02-27 12:21:00,54.5,33.6,29.64,South,180,2.7,-999.0,45,-99.99,,,0.00,Acu-Link.com,2013-02-27 17:21:00,
2013-02-27 12:36:00,55.4,33.3,29.64,SSE,157,4.2,-999.0,43,-99.99,,,0.00,Acu-Link.com,2013-02-27 17:36:00,
2013-02-27 12:51:00,56.5,34.3,29.63,West,270,2.7,-999.0,43,-99.99,,,0.00,Acu-Link.com,2013-02-27 17:51:00,
2013-02-27 13:06:00,56.5,33.7,29.63,South,180,4.7,-999.0,42,-99.99,,,0.00,Acu-Link.com,2013-02-27 18:06:00,
2013-02-27 13:22:00,57.4,34.5,29.62,ENE,67,1.1,-999.0,42,-99.99,,,0.00,Acu-Link.com,2013-02-27 18:22:00,
2013-02-27 13:37:00,57.2,34.3,29.62,South,180,2.7,-999.0,42,-99.99,,,0.00,Acu-Link.com,2013-02-27 18:37:00,
2013-02-27 13:52:00,57.2,33.7,29.61,SSW,202,1.7,-999.0,41,-99.99,,,0.00,Acu-Link.com,2013-02-27 18:52:00,
2013-02-27 14:07:00,58.1,33.9,29.61,South,180,3.2,-999.0,40,-99.99,,,0.00,Acu-Link.com,2013-02-27 19:07:00,
2013-02-27 14:22:00,57.0,33.5,29.60,NW,315,2.7,-999.0,41,-99.99,,,0.00,Acu-Link.com,2013-02-27 19:22:00,
2013-02-27 14:37:00,57.0,33.5,29.59,West,270,3.2,-999.0,41,-99.99,,,0.00,Acu-Link.com,2013-02-27 19:37:00,
2013-02-27 14:52:00,58.3,34.7,29.59,SSW,202,2.2,-999.0,41,-99.99,,,0.00,Acu-Link.com,2013-02-27 19:52:00,
2013-02-27 15:07:00,58.8,33.9,29.58,NNE,22,2.2,-999.0,39,-99.99,,,0.00,Acu-Link.com,2013-02-27 20:07:00,
2013-02-27 15:22:00,60.1,33.7,29.58,SSW,202,3.2,-999.0,37,-99.99,,,0.00,Acu-Link.com,2013-02-27 20:22:00,
2013-02-27 15:38:00,58.3,34.7,29.58,West,270,3.2,-999.0,41,-99.99,,,0.00,Acu-Link.com,2013-02-27 20:38:00,
2013-02-27 15:53:00,57.9,34.3,29.58,WSW,247,1.1,-999.0,41,-99.99,,,0.00,Acu-Link.com,2013-02-27 20:53:00,
2013-02-27 16:08:00,57.7,33.5,29.57,East,90,1.1,-999.0,40,-99.99,,,0.00,Acu-Link.com,2013-02-27 21:08:00,
2013-02-27 16:23:00,59.7,33.4,29.57,SSE,157,1.7,-999.0,37,-99.99,,,0.00,Acu-Link.com,2013-02-27 21:23:00,
2013-02-27 16:38:00,57.4,32.7,29.56,SSW,202,4.2,-999.0,39,-99.99,,,0.00,Acu-Link.com,2013-02-27 21:38:00,
2013-02-27 16:53:00,56.8,32.7,29.55,West,270,4.7,-999.0,40,-99.99,,,0.00,Acu-Link.com,2013-02-27 21:53:00,
2013-02-27 17:08:00,56.1,32.7,29.56,West,270,2.7,-999.0,41,-99.99,,,0.00,Acu-Link.com,2013-02-27 22:08:00,
2013-02-27 17:23:00,55.4,32.7,29.56,SW,225,1.1,-999.0,42,-99.99,,,0.00,Acu-Link.com,2013-02-27 22:23:00,
2013-02-27 17:38:00,54.7,32.6,29.55,SSW,202,3.7,-999.0,43,-99.99,,,0.00,Acu-Link.com,2013-02-27 22:38:00,
2013-02-27 17:54:00,54.0,32.0,29.55,WSW,247,3.2,-999.0,43,-99.99,,,0.00,Acu-Link.com,2013-02-27 22:54:00,
2013-02-27 18:09:00,53.2,32.4,29.56,SW,225,3.7,-999.0,45,-99.99,,,0.00,Acu-Link.com,2013-02-27 23:09:00,
2013-02-27 18:24:00,52.3,32.1,29.57,NNW,337,2.2,-999.0,46,-99.99,,,0.00,Acu-Link.com,2013-02-27 23:24:00,
2013-02-27 18:39:00,51.8,32.2,29.57,South,180,1.1,-999.0,47,-99.99,,,0.00,Acu-Link.com,2013-02-27 23:39:00,
2013-02-27 18:54:00,51.1,32.1,29.57,South,180,1.1,-999.0,48,-99.99,,,0.00,Acu-Link.com,2013-02-27 23:54:00,
2013-02-27 19:09:00,50.4,32.0,29.57,South,180,1.1,-999.0,49,-99.99,,,0.00,Acu-Link.com,2013-02-28 00:09:00,
2013-02-27 19:24:00,49.8,31.9,29.56,South,180,2.2,-999.0,50,-99.99,,,0.00,Acu-Link.com,2013-02-28 00:24:00,
2013-02-27 19:39:00,49.6,31.7,29.56,SW,225,1.7,-999.0,50,-99.99,,,0.00,Acu-Link.com,2013-02-28 00:39:00,
2013-02-27 19:54:00,49.1,30.8,29.56,West,270,1.1,-999.0,49,-99.99,,,0.00,Acu-Link.com,2013-02-28 00:54:00,
2013-02-27 20:09:00,48.9,30.6,29.56,WNW,292,1.7,-999.0,49,-99.99,,,0.00,Acu-Link.com,2013-02-28 01:09:00,
2013-02-27 20:25:00,49.3,30.5,29.56,ESE,112,0.0,-999.0,48,-99.99,,,0.00,Acu-Link.com,2013-02-28 01:25:00,
2013-02-27 20:40:00,49.5,30.1,29.56,SSW,202,1.7,-999.0,47,-99.99,,,0.00,Acu-Link.com,2013-02-28 01:40:00,
2013-02-27 20:55:00,49.6,29.7,29.57,North,0,2.7,-999.0,46,-99.99,,,0.00,Acu-Link.com,2013-02-28 01:55:00,
2013-02-27 21:10:00,49.5,29.6,29.58,West,270,1.1,-999.0,46,-99.99,,,0.00,Acu-Link.com,2013-02-28 02:10:00,
2013-02-27 21:25:00,49.6,29.1,29.58,West,270,2.7,-999.0,45,-99.99,,,0.00,Acu-Link.com,2013-02-28 02:25:00,
2013-02-27 21:40:00,49.8,28.8,29.58,West,270,2.7,-999.0,44,-99.99,,,0.00,Acu-Link.com,2013-02-28 02:40:00,
2013-02-27 21:55:00,49.8,28.8,29.58,East,90,1.7,-999.0,44,-99.99,,,0.00,Acu-Link.com,2013-02-28 02:55:00,
2013-02-27 22:10:00,50.0,28.4,29.58,West,270,2.7,-999.0,43,-99.99,,,0.00,Acu-Link.com,2013-02-28 03:10:00,
2013-02-27 22:25:00,49.5,28.5,29.58,ESE,112,1.1,-999.0,44,-99.99,,,0.00,Acu-Link.com,2013-02-28 03:25:00,
2013-02-27 22:41:00,48.6,28.8,29.59,South,180,0.0,-999.0,46,-99.99,,,0.00,Acu-Link.com,2013-02-28 03:41:00,
2013-02-27 22:56:00,48.2,29.4,29.59,South,180,1.1,-999.0,48,-99.99,,,0.00,Acu-Link.com,2013-02-28 03:56:00,
2013-02-27 23:11:00,47.8,29.6,29.58,WSW,247,1.1,-999.0,49,-99.99,,,0.00,Acu-Link.com,2013-02-28 04:11:00,
2013-02-27 23:26:00,47.5,29.3,29.58,West,270,0.0,-999.0,49,-99.99,,,0.00,Acu-Link.com,2013-02-28 04:26:00,
2013-02-27 23:41:00,47.1,29.9,29.58,SSE,157,0.0,-999.0,51,-99.99,,,0.00,Acu-Link.com,2013-02-28 04:41:00,
2013-02-27 23:56:00,46.8,30.1,29.57,South,180,1.7,-999.0,52,-99.99,,,0.00,Acu-Link.com,2013-02-28 04:56:00,